Weather History for KFVE - August, 2013

Change the Weather History Date:

Friday, August 9, 2013

  Actual Average Record
Temperature  
Mean Temperature 64 °F 64 °F  
Max Temperature 66 °F 73 °F 90 °F (2001)
Min Temperature 61 °F 54 °F 44 °F (2002)
Degree Days  
Heating Degree Days 1    
Month to date heating degree days 34  
Since 1 July heating degree days 85  
Cooling Degree Days 0    
Month to date cooling degree days 2  
Year to date cooling degree days 116  
Growing Degree Days 13 (Base 50)    
Moisture  
Dew Point 63 °F    
Average Humidity 98    
Maximum Humidity 100    
Minimum Humidity 93    
Precipitation  
Precipitation 0.06 in 0.12 in 0.93 in (2010)
Month to date precipitation 5.06 1.12  
Year to date precipitation 22.71 19.18  
Sea Level Pressure  
Sea Level Pressure 29.88 in    
Wind  
Wind Speed 7 mph (SSE)    
Max Wind Speed 15 mph    
Max Gust Speed 18 mph    
Visibility 4 miles    
Events Fog , Rain    
T = Trace of Precipitation, MM = Missing Value Source: NWS Daily Summary

Daily Weather History Graph

Daily Weather History Graph

Search for Another Location

Airport or City:

Trip Planner

Search our weather history database for the weather conditions in past years. The results will help you decide how hot, cold, wet, or windy it might be!

Date:

Astronomy

Aug. 09, 2013 Rise Set
Actual Time 5:22 AM EDT 7:54 PM EDT
Civil Twilight 4:47 AM EDT 8:28 PM EDT
Nautical Twilight 4:04 AM EDT 9:11 PM EDT
Astronomical Twilight 3:13 AM EDT 10:01 PM EDT
Moon 8:20 AM EDT (8/9) 8:44 PM EDT (8/9)
Length of Visible Light 15h 40m
Length of Day
14h 32m
Waxing Crescent, 7% of the Moon is Illuminated
Aug 9
Waxing Crescent
Aug 14
First Quarter
Aug 20
Full
Aug 28
Last Quarter
Sep 5
New

Hourly Weather History & Observations

Time (EDT) Temp. Dew Point Humidity Pressure Visibility Wind Dir Wind Speed Gust Speed Precip Events Conditions
12:53 AM 61.0 °F 61.0 °F 100% 30.00 in 0.2 mi SSE 5.8 mph - N/A Fog Fog
1:53 AM 61.0 °F 61.0 °F 100% 30.00 in 0.2 mi South 9.2 mph - 0.01 in Fog Fog
2:53 AM 61.0 °F 61.0 °F 100% 29.99 in 0.2 mi SSE 9.2 mph - N/A Fog Fog
3:53 AM 61.0 °F 61.0 °F 100% 29.98 in 0.5 mi South 8.1 mph - N/A Fog Fog
4:53 AM 61.0 °F 60.1 °F 97% 29.98 in 0.8 mi SSE 10.4 mph - N/A   Mist
4:59 AM 60.8 °F 60.8 °F 100% 29.99 in 1.5 mi SSE 8.1 mph - N/A   Overcast
5:05 AM 60.8 °F 60.8 °F 100% 29.99 in 2.0 mi South 9.2 mph - N/A   Overcast
5:28 AM 60.8 °F 60.8 °F 100% 29.99 in 4.0 mi South 9.2 mph - N/A   Overcast
5:53 AM 61.0 °F 60.1 °F 97% 29.98 in 2.5 mi SSE 9.2 mph - N/A   Overcast
6:05 AM 60.8 °F 60.8 °F 100% 29.99 in 4.0 mi South 9.2 mph - N/A   Overcast
6:53 AM 61.0 °F 60.1 °F 97% 29.98 in 5.0 mi SSE 8.1 mph - N/A   Overcast
7:04 AM 60.8 °F 60.8 °F 100% 29.99 in 2.5 mi SSE 6.9 mph - N/A   Overcast
7:12 AM 60.8 °F 60.8 °F 100% 29.99 in 4.0 mi South 5.8 mph - N/A   Overcast
7:18 AM 60.8 °F 60.8 °F 100% 29.98 in 1.8 mi SSE 5.8 mph - N/A   Overcast
7:21 AM 60.8 °F 60.8 °F 100% 29.98 in 1.2 mi SE 5.8 mph - N/A   Overcast
7:30 AM 60.8 °F 60.8 °F 100% 29.98 in 0.2 mi SSE 6.9 mph - N/A Fog Fog
7:53 AM 61.0 °F 61.0 °F 100% 29.98 in 0.2 mi SE 3.5 mph - N/A Fog Fog
8:53 AM 62.1 °F 61.0 °F 96% 29.97 in 0.2 mi SE 6.9 mph - N/A Fog Fog
9:53 AM 63.0 °F 62.1 °F 97% 29.93 in 0.2 mi East 3.5 mph - 0.01 in Fog , Rain Light Rain
10:05 AM 62.6 °F 62.6 °F 100% 29.92 in 1.8 mi ESE 8.1 mph - 0.00 in Rain Light Rain
10:08 AM 62.6 °F 62.6 °F 100% 29.92 in 3.0 mi East 6.9 mph - 0.00 in Rain Light Rain
10:53 AM 63.0 °F 63.0 °F 100% 29.92 in 10.0 mi ESE 6.9 mph - 0.00 in   Overcast
11:22 AM 64.4 °F 62.6 °F 94% 29.93 in 10.0 mi SE 10.4 mph - N/A   Overcast
11:53 AM 64.0 °F 62.1 °F 93% 29.92 in 10.0 mi SSE 9.2 mph - N/A   Overcast
12:45 PM 64.4 °F 62.6 °F 94% 29.90 in 10.0 mi SE 5.8 mph - N/A   Overcast
12:53 PM 64.9 °F 63.0 °F 93% 29.90 in 10.0 mi SSE 5.8 mph - N/A   Overcast
1:53 PM 64.9 °F 63.0 °F 93% 29.88 in 10.0 mi SE 5.8 mph - N/A   Overcast
2:53 PM 64.9 °F 63.0 °F 93% 29.86 in 10.0 mi South 8.1 mph - N/A   Overcast
3:01 PM 64.4 °F 62.6 °F 94% 29.86 in 9.0 mi SSE 6.9 mph - N/A   Overcast
3:53 PM 64.9 °F 64.0 °F 97% 29.84 in 8.0 mi SSE 5.8 mph - N/A   Overcast
4:10 PM 64.4 °F 64.4 °F 100% 29.85 in 1.8 mi SSE 6.9 mph - 0.00 in Rain Light Rain
4:12 PM 64.4 °F 64.4 °F 100% 29.85 in 1.0 mi SSE 6.9 mph - 0.00 in Rain Light Rain
4:19 PM 64.4 °F 64.4 °F 100% 29.85 in 0.2 mi SSE 5.8 mph - 0.01 in Fog , Rain Light Rain
4:53 PM 64.9 °F 64.0 °F 97% 29.83 in 0.2 mi SE 4.6 mph - 0.02 in Fog Fog
5:11 PM 64.4 °F 64.4 °F 100% 29.83 in 0.2 mi SE 6.9 mph - 0.00 in Fog Fog
5:24 PM 64.4 °F 64.4 °F 100% 29.82 in 0.5 mi SE 8.1 mph - 0.00 in Fog Fog
5:53 PM 64.9 °F 64.9 °F 100% 29.81 in 0.2 mi SE 4.6 mph - 0.00 in Fog Fog
6:53 PM 66.0 °F 64.9 °F 96% 29.79 in 0.2 mi SSE 6.9 mph - N/A Fog Fog
7:21 PM 66.2 °F 66.2 °F 100% 29.79 in 1.8 mi SSE 6.9 mph - N/A   Overcast
7:23 PM 66.2 °F 66.2 °F 100% 29.79 in 4.0 mi SSE 6.9 mph - N/A   Overcast
7:53 PM 66.0 °F 66.0 °F 100% 29.77 in 10.0 mi SSE 8.1 mph - 0.00 in Rain Light Rain
8:32 PM 66.2 °F 66.2 °F 100% 29.77 in 10.0 mi SSE 11.5 mph - 0.02 in Rain Light Rain
8:35 PM 66.2 °F 66.2 °F 100% 29.77 in 10.0 mi SSE 10.4 mph - 0.02 in Rain Light Rain
8:53 PM 66.0 °F 66.0 °F 100% 29.75 in 6.0 mi SSE 10.4 mph - 0.02 in   Overcast
9:53 PM 64.9 °F 64.0 °F 97% 29.74 in 10.0 mi South 5.8 mph - N/A   Mostly Cloudy
10:40 PM 64.4 °F 62.6 °F 94% 29.73 in 10.0 mi South 9.2 mph - N/A   Mostly Cloudy
10:53 PM 64.9 °F 63.0 °F 93% 29.72 in 10.0 mi South 9.2 mph - N/A   Overcast
11:32 PM 64.4 °F 62.6 °F 94% 29.71 in 10.0 mi South 5.8 mph - N/A   Overcast
11:42 PM 64.4 °F 62.6 °F 94% 29.71 in 10.0 mi South 5.8 mph - N/A   Overcast
11:53 PM 64.0 °F 63.0 °F 96% 29.70 in 5.0 mi South 6.9 mph - N/A   Overcast